When you browse on this site, cookies collect data to enhance your experience and personalize the content and advertising you see.
Visit our Privacy Policy to learn more. By continuing to use the site, you agree to this use of cookies and data.

Tiempo cada hora Bubanza

Hoy, 22 Septiembre, Martes

Tiempo Temperatura Precipitaciones Viento Presión Humedad
00:00 +24°C° 0.1 mm 1 mps 674 mmHg 59%
01:00 +24°C° 0.1 mm 1 mps 673 mmHg 60%
02:00 +24°C° 0.1 mm 1 mps 673 mmHg 60%
03:00 +24°C° 0 mm 1 mps 673 mmHg 62%
04:00 +23°C° 0 mm 1 mps 673 mmHg 65%
05:00 +21°C° 0 mm 0 mps 673 mmHg 67%
06:00 +23°C° 0 mm 0 mps 674 mmHg 59%
07:00 +25°C° 0 mm 0 mps 675 mmHg 51%
08:00 +28°C° 0 mm 0 mps 675 mmHg 44%
09:00 +31°C° 0 mm 2 mps 675 mmHg 40%
10:00 +33°C° 0 mm 3 mps 675 mmHg 37%
11:00 +34°C° 0 mm 4 mps 675 mmHg 34%
12:00 +33°C° 0.1 mm 4 mps 674 mmHg 38%
13:00 +31°C° 0.1 mm 3 mps 673 mmHg 43%
14:00 +30°C° 0.1 mm 3 mps 672 mmHg 47%
15:00 +29°C° 0.2 mm 3 mps 672 mmHg 50%
16:00 +29°C° 0.2 mm 2 mps 672 mmHg 53%
17:00 +28°C° 0.2 mm 2 mps 672 mmHg 55%
18:00 +27°C° 0.5 mm 1 mps 672 mmHg 61%
19:00 +26°C° 0.5 mm 1 mps 673 mmHg 66%
20:00 +25°C° 0.5 mm 1 mps 673 mmHg 71%
21:00 +24°C° 0.1 mm 1 mps 673 mmHg 72%
22:00 +24°C° 0.1 mm 1 mps 674 mmHg 74%
23:00 +23°C° 0.1 mm 1 mps 674 mmHg 75%

Mañana, 23 Septiembre, Miércoles

Tiempo Temperatura Precipitaciones Viento Presión Humedad
00:00 +23°C° 0 mm 1 mps 673 mmHg 74%
01:00 +23°C° 0 mm 1 mps 673 mmHg 72%
02:00 +23°C° 0 mm 1 mps 673 mmHg 71%
03:00 +23°C° 0 mm 1 mps 673 mmHg 72%
04:00 +22°C° 0 mm 1 mps 672 mmHg 73%
05:00 +22°C° 0 mm 1 mps 672 mmHg 74%
06:00 +24°C° 0 mm 2 mps 673 mmHg 68%
07:00 +25°C° 0 mm 2 mps 674 mmHg 61%
08:00 +27°C° 0 mm 3 mps 675 mmHg 55%
09:00 +29°C° 0 mm 3 mps 675 mmHg 48%
10:00 +31°C° 0 mm 3 mps 675 mmHg 41%
11:00 +34°C° 0 mm 3 mps 675 mmHg 34%
12:00 +35°C° 0 mm 3 mps 674 mmHg 32%
13:00 +35°C° 0 mm 3 mps 673 mmHg 29%
14:00 +36°C° 0 mm 3 mps 672 mmHg 27%
15:00 +34°C° 0 mm 2 mps 672 mmHg 30%
16:00 +32°C° 0 mm 2 mps 671 mmHg 34%
17:00 +30°C° 0 mm 2 mps 671 mmHg 38%
18:00 +29°C° 0 mm 1 mps 671 mmHg 42%
19:00 +27°C° 0 mm 1 mps 671 mmHg 46%
20:00 +24°C° 0 mm 0 mps 672 mmHg 50%
21:00 +23°C° 0 mm 0 mps 672 mmHg 51%
22:00 +25°C° 0 mm 1 mps 672 mmHg 52%
23:00 +24°C° 0 mm 1 mps 672 mmHg 54%

Pasado mañana, 24 Septiembre, Jueves

Tiempo Temperatura Precipitaciones Viento Presión Humedad
00:00 +24°C° 0 mm 1 mps 672 mmHg 53%
01:00 +22°C° 0 mm 0 mps 672 mmHg 52%
02:00 +22°C° 0 mm 0 mps 672 mmHg 51%
03:00 +24°C° 0 mm 1 mps 672 mmHg 50%
04:00 +25°C° 0 mm 1 mps 672 mmHg 49%
05:00 +25°C° 0 mm 1 mps 673 mmHg 48%
06:00 +26°C° 0 mm 1 mps 674 mmHg 45%
07:00 +27°C° 0 mm 2 mps 675 mmHg 43%
08:00 +29°C° 0 mm 2 mps 676 mmHg 40%
09:00 +30°C° 0 mm 2 mps 675 mmHg 38%
10:00 +31°C° 0 mm 2 mps 675 mmHg 35%
11:00 +34°C° 0 mm 2 mps 675 mmHg 33%
12:00 +34°C° 0 mm 3 mps 674 mmHg 33%
13:00 +34°C° 0 mm 3 mps 673 mmHg 33%
14:00 +33°C° 0 mm 3 mps 672 mmHg 33%
15:00 +31°C° 0 mm 2 mps 672 mmHg 36%
16:00 +30°C° 0 mm 2 mps 671 mmHg 39%
17:00 +29°C° 0 mm 2 mps 671 mmHg 43%
18:00 +28°C° 0 mm 1 mps 672 mmHg 46%
19:00 +27°C° 0 mm 1 mps 672 mmHg 50%
20:00 +24°C° 0 mm 0 mps 673 mmHg 53%
21:00 +24°C° 0 mm 0 mps 673 mmHg 53%
22:00 +26°C° 0 mm 1 mps 673 mmHg 54%
23:00 +25°C° 0 mm 1 mps 673 mmHg 54%

25 Septiembre, Viernes

Tiempo Temperatura Precipitaciones Viento Presión Humedad
00:00 +25°C° 0 mm 1 mps 673 mmHg 55%
01:00 +23°C° 0 mm 0 mps 672 mmHg 56%
02:00 +22°C° 0 mm 0 mps 672 mmHg 57%
03:00 +22°C° 0 mm 0 mps 672 mmHg 58%
04:00 +22°C° 0 mm 0 mps 672 mmHg 60%
05:00 +21°C° 0 mm 0 mps 672 mmHg 62%
06:00 +23°C° 0 mm 0 mps 673 mmHg 56%
07:00 +27°C° 0 mm 1 mps 674 mmHg 51%
08:00 +29°C° 0 mm 1 mps 675 mmHg 45%
09:00 +30°C° 0.1 mm 2 mps 675 mmHg 43%
10:00 +31°C° 0.1 mm 3 mps 675 mmHg 42%
11:00 +31°C° 0.1 mm 3 mps 675 mmHg 40%
12:00 +33°C° 0 mm 3 mps 674 mmHg 40%
13:00 +33°C° 0 mm 3 mps 673 mmHg 39%
14:00 +33°C° 0 mm 3 mps 672 mmHg 39%
15:00 +31°C° 0 mm 3 mps 671 mmHg 42%
16:00 +30°C° 0 mm 3 mps 671 mmHg 45%
17:00 +29°C° 0 mm 3 mps 671 mmHg 48%
18:00 +28°C° 0 mm 2 mps 672 mmHg 53%
19:00 +27°C° 0 mm 1 mps 672 mmHg 58%
20:00 +26°C° 0 mm 1 mps 673 mmHg 63%
21:00 +25°C° 0 mm 1 mps 673 mmHg 64%
22:00 +25°C° 0 mm 1 mps 673 mmHg 66%
23:00 +24°C° 0 mm 1 mps 673 mmHg 68%

26 Septiembre, Sábado

Tiempo Temperatura Precipitaciones Viento Presión Humedad
00:00 +24°C° 0 mm 1 mps 672 mmHg 69%
01:00 +23°C° 0 mm 1 mps 672 mmHg 70%
02:00 +23°C° 0 mm 1 mps 672 mmHg 71%
03:00 +22°C° 0 mm 1 mps 672 mmHg 72%
04:00 +22°C° 0 mm 1 mps 672 mmHg 72%
05:00 +22°C° 0 mm 1 mps 672 mmHg 73%
06:00 +24°C° 0 mm 1 mps 673 mmHg 65%
07:00 +27°C° 0 mm 1 mps 673 mmHg 57%
08:00 +29°C° 0 mm 1 mps 674 mmHg 49%
09:00 +31°C° 0 mm 1 mps 674 mmHg 43%
10:00 +33°C° 0 mm 1 mps 674 mmHg 36%
11:00 +36°C° 0 mm 1 mps 674 mmHg 30%
12:00 +35°C° 0.2 mm 3 mps 673 mmHg 35%
13:00 +34°C° 0.2 mm 4 mps 672 mmHg 40%
14:00 +32°C° 0.2 mm 5 mps 671 mmHg 45%
15:00 +29°C° 0.4 mm 4 mps 670 mmHg 52%
16:00 +28°C° 0.4 mm 3 mps 670 mmHg 58%
17:00 +27°C° 0.4 mm 2 mps 670 mmHg 64%
18:00 +26°C° 0.4 mm 1 mps 671 mmHg 67%
19:00 +25°C° 0.4 mm 1 mps 671 mmHg 69%
20:00 +25°C° 0.4 mm 1 mps 672 mmHg 72%
21:00 +24°C° 1.2 mm 1 mps 672 mmHg 74%
22:00 +24°C° 1.2 mm 1 mps 672 mmHg 76%
23:00 +24°C° 1.2 mm 1 mps 672 mmHg 78%

27 Septiembre, Domingo

Tiempo Temperatura Precipitaciones Viento Presión Humedad
00:00 +23°C° 0.2 mm 1 mps 672 mmHg 79%
01:00 +23°C° 0.2 mm 1 mps 672 mmHg 80%
02:00 +23°C° 0.2 mm 1 mps 671 mmHg 80%
03:00 +22°C° 0 mm 1 mps 671 mmHg 81%
04:00 +22°C° 0 mm 1 mps 671 mmHg 81%
05:00 +22°C° 0 mm 1 mps 671 mmHg 82%
06:00 +24°C° 0 mm 1 mps 672 mmHg 74%
07:00 +24°C° 0 mm 0 mps 673 mmHg 67%
08:00 +25°C° 0 mm 0 mps 674 mmHg 60%
09:00 +30°C° 0.2 mm 1 mps 674 mmHg 52%
10:00 +32°C° 0.2 mm 1 mps 674 mmHg 44%
11:00 +35°C° 0.2 mm 1 mps 674 mmHg 36%
12:00 +34°C° 0.2 mm 1 mps 673 mmHg 38%
13:00 +34°C° 0.2 mm 2 mps 672 mmHg 40%
14:00 +32°C° 0.2 mm 2 mps 670 mmHg 42%
15:00 +30°C° 0.2 mm 2 mps 670 mmHg 48%
16:00 +29°C° 0.2 mm 2 mps 670 mmHg 54%
17:00 +28°C° 0.2 mm 2 mps 670 mmHg 59%
18:00 +27°C° 1.1 mm 2 mps 670 mmHg 66%
19:00 +25°C° 1.1 mm 2 mps 671 mmHg 72%
20:00 +24°C° 1.1 mm 1 mps 671 mmHg 78%
21:00 +24°C° 0.6 mm 1 mps 671 mmHg 80%
22:00 +24°C° 0.6 mm 1 mps 672 mmHg 82%
23:00 +23°C° 0.6 mm 1 mps 672 mmHg 83%
Mostrar más